Home   Weather   Trenton   Past weeks

Flag for USA Past Weather in Trenton, New Jersey, USA — Yesterday and Last 2 Weeks

78 °F


Feels Like: 80 °F
Forecast: 61 / 76 °F
Wind: 9 mph from South

Location: Mercer County Airport

Current Time: Oct 21, 2016 at 4:22:43 PM

Latest Report: Oct 21, 2016 at 3:53 PM

Visibility: 10 mi

Pressure: 29.50 "Hg

Humidity: 60%

Dew Point: 63 °F

Location of TrentonLocation

Past Weather in Trenton — Graph


Trenton Temperature Yesterday

Maximum temperature yesterday: 75 °F (at 1:53 PM)
Minimum temperature yesterday: 62 °F (at 4:53 AM)
Average temperature yesterday: 67 °F

High & Low Weather Summary for the Past Weeks

High85 °F (Oct 19, 2:53 PM)100% (Oct 13, 9:59 AM)30.45 "Hg (Oct 13, 9:59 AM)
Low39 °F (Oct 15, 6:53 AM)24% (Oct 10, 3:53 PM)29.54 "Hg (Oct 21, 2:53 PM)
Average60 °F72%30.12 "Hg
* Reported Oct 6 2:53 PM — Oct 21 2:53 PM, Trenton, Weather by CustomWeather, © 2016

Note: Actual official high and low records may vary slightly from our data, if they occured in-between our weather recording intervals... More about our weather records


Trenton Weather History for the Previous 24 Hours

Scroll right to see more
Time TempWeatherWind HumidityBarometerVisibility
2:53 PM
Fri, Oct 21
78 °FPassing clouds.9 mph62%29.54 "Hg10 mi
1:53 PM76 °FMostly cloudy.10 mph67%29.59 "Hg10 mi
12:53 PM75 °FPartly sunny.10 mph74%29.63 "Hg10 mi
11:53 AM73 °FScattered clouds.6 mph76%29.67 "Hg10 mi
10:53 AM72 °FPartly sunny.7 mph81%29.69 "Hg10 mi
9:53 AM69 °FLow clouds.5 mph90%29.72 "Hg8 mi
8:53 AM68 °FLow clouds.3 mph90%29.74 "Hg7 mi
7:53 AM66 °FLow clouds.No wind93%29.76 "Hg8 mi
6:53 AM67 °FMostly cloudy.7 mph90%29.78 "Hg10 mi
5:53 AM67 °FLow clouds.7 mph90%29.80 "Hg10 mi
4:53 AM67 °FMostly cloudy.3 mph90%29.81 "Hg10 mi
3:53 AM67 °FOvercast.6 mph90%29.83 "Hg10 mi
2:53 AM68 °FLow clouds.9 mph87%29.87 "Hg10 mi
1:53 AM67 °FLow clouds.7 mph93%29.89 "Hg10 mi
1:01 AM66 °FPassing clouds.8 mph93%29.92 "Hg10 mi
11:53 PM
Thu, Oct 20
66 °FClear.6 mph87%29.93 "Hg10 mi
10:53 PM66 °FOvercast.7 mph90%29.93 "Hg10 mi
9:53 PM66 °FPassing clouds.7 mph93%29.94 "Hg7 mi
8:53 PM68 °FLow clouds.7 mph90%29.95 "Hg7 mi
7:53 PM68 °FLow clouds.7 mph90%29.96 "Hg7 mi
6:53 PM68 °FLow clouds.12 mph87%29.96 "Hg8 mi
5:53 PM69 °FLow clouds.12 mph81%29.98 "Hg10 mi
4:53 PM70 °FOvercast.9 mph79%29.98 "Hg10 mi
Weather by CustomWeather, © 2016

See weather overviewHow to use our weather pages